Погода в Лейпциге

Россия / Челябинская область     53°34′09″N   61°02′44″E
темп.,
°C
ветер,
м/с
пор.,
м/с
влажн.,
%
обл.,
%
осадки,
мм/ч
давл.,
гПа
погр.,
м
19 января, вт
вт1923:00−22зюз008574 0.0 102320
02:00−21в1186100 0.0 102220
05:00−18вюв1188100 0.0 102280
08:00−18в2492100 0.0 1021165
11:00−17в3597100 1.4 1021244
14:00−16в4795100 0.8 1020271
17:00−15всв4795100 1.1 1018305
20:00−15всв4895100 0.4 1017389
20 января, ср
ср2023:00−14всв3696100 1.9 1016368
02:00−14ссв2297100 2.3 101487
05:00−14ссз2496100 3.9 1013132
08:00−15зсз359696 0.1 1012119
11:00−16з489296 0.2 1013212
14:00−16з488919 0.0 1014243
17:00−17зюз488910 0.0 1015143
20:00−17зюз510880 0.0 1017196
21 января, чт
чт2123:00−19зюз510870 0.0 1018169
02:00−21зюз49890 0.0 1018149
05:00−22зюз49890 0.0 1018174
08:00−24зюз47894 0.0 1018103
11:00−20з479148 0.0 1019228
14:00−18з378963 0.0 1018232
17:00−20з348955 0.0 101855
20:00−18з358797 0.0 101995
22 января, пт
пт2223:00−18з468799 0.0 101998
02:00−18з368998 0.0 1018118
05:00−17зюз368998 0.0 1017110
08:00−16зюз379298 0.0 1017163
11:00−14зюз499599 0.2 1016282
14:00−11юз5894100 0.6 1014375
17:00−14юз4895100 1.1 1015407
20:00−18зюз349592 0.1 101682
23 января, сб
сб2323:00−17ссз379791 0.1 1018140
02:00−20ссз459789 0.0 102186
05:00−21ссз349776 0.0 102332
08:00−22с339880 0.0 102725
11:00−23ссв239888 0.0 103032
14:00−23св239686 0.0 1032145
17:00−24в239693 0.0 103440
20:00−23юв3496100 0.0 1035164